Powrót do katalogu

THORAD AGENA D DEB

AktywnyLEO
NORAD 42520·DEBRIS·🇺🇸 United States

Wystrzelony Apr 8, 1970 z Vandenberg Space Force Base

Loading…

Następne Przeloty (najbliższe 24 godziny)

TLE

Starzejące sięSource: Space-Track

Epoka: Sep 11, 2026, 11:07 UTC

1 42520U 70025SA  26254.46368200  .00000679  00000-0  56877-3 0  9993
2 42520 100.2899 130.1946 0092431 235.7674 123.4698 13.90533612639139

Śledź THORAD AGENA D DEB w czasie rzeczywistym z AllMySat

Download on the App Store